Header for Extended Forecast Station List Page

Search by: ID | Name | Date | Parm | Value | Avg | % Avg
Sort by: ID | Name | Date | Parm | Value | Avg | % Avg

Enter search or view all records.

Click on id for station plot
#IDNameDateParmValueAvg% Avg
0LYDM8KOOTENAI-LIBBY DAM06-18-2018INFLOW (KAF)2601338277
1LEOI1KOOTENAI-AT LEONIA06-18-2018DISCHARGE (KAF)2418325074
2BFEI1KOOTENAI-AT BONNERS FERRY06-18-2018STAGE (FT)MMM
3FCFM8NF FLATHEAD-NEAR COLUMBIA FALLS06-18-2018DISCHARGE (KAF)48166472
4WGCM8MF FLATHEAD-NEAR WEST GLACIER06-18-2018DISCHARGE (KAF)49961182
5HHWM8SF FLATHEAD-HUNGRY HORSE DAM06-18-2018INFLOW (KAF)59762296
6CFMM8FLATHEAD-AT COLUMBIA FALLS06-18-2018DISCHARGE (KAF)1806201090
7DLGM8CLARK FORK-AT DEER LODGE06-18-2018DISCHARGE (KAF)11045245
8DRMM8CLARK FORK-NR DRUMMOND06-18-2018DISCHARGE (KAF)262MM
9RCCM8ROCK CREEK-NEAR CLINTON06-18-2018DISCHARGE (KAF)162122133
10BONM8BLACKFOOT-NEAR BONNER06-18-2018DISCHARGE (KAF)462324142
11ABOM8CLARK FORK-ABOVE MISSOULA06-18-2018DISCHARGE (KAF)929621150
12BITM8BITTERROOT-NEAR MISSOULA06-18-2018DISCHARGE (KAF)502482104
13BELM8CLARK FORK-BELOW MISSOULA06-18-2018DISCHARGE (KAF)14421131128
14STRM8ST. REGIS-NEAR ST. REGIS06-18-2018DISCHARGE (KAF)485588
15SRGM8CLARK FORK-AT ST REGIS06-18-2018DISCHARGE (KAF)17501465119
16KERM8FLATHEAD-KERR DAM06-18-2018INFLOW (KAF)2085244685
17NOXM8CLARK FORK-NOXON RAPIDS DAM06-18-2018INFLOW (KAF)44694419101
18CABI1CLARK FORK-CABINET GORGE DAM06-18-2018INFLOW (KAF)48754734103
19PRTI1PRIEST-NEAR PRIEST RIVER06-18-2018DISCHARGE (KAF)18920990
20ALFW1PEND OREILLE-ALBENI FALLS DAM06-18-2018INFLOW (KAF)4957509397
21HOPI1PEND OREILLE-PEND OREILLE LAKE NR HOPE06-18-2018LAKE ELEVATION (FT)MMM
22COEI1COEUR D ALENE-COEUR D ALENE LAKE06-18-2018INFLOW (KAF)33737590
23SPOW1SPOKANE-AT SPOKANE06-18-2018DISCHARGE (KAF)478MM
24LLKW1SPOKANE-AT LONGLAKE06-18-2018INFLOW (KAF)65370393
25SATI1ST MARIES-NEAR SANTA06-18-2018DISCHARGE (KAF)202578
26SJMI1ST JOE-AT ST MARIES06-18-2018STAGE (FT)MMM
27CIBW1COLUMBIA-AT INTL BOUNDARY06-18-2018DISCHARGE (KAF)23826MM
28LAUW1KETTLE-AT LAURIER06-18-2018DISCHARGE (KAF)23741857
29GCDW1COLUMBIA-GRAND COULEE DAM06-18-2018INFLOW (KAF)247672963384
30CHJW1COLUMBIA-CHIEF JOSEPH DAM06-18-2018INFLOW (KAF)235362467895
31TONW1OKANOGAN-NEAR TONASKET06-18-2018DISCHARGE (KAF)49857786
32PATW1METHOW-NEAR PATEROS06-18-2018DISCHARGE (KAF)22230872
33WELW1COLUMBIA-WELLS DAM06-18-2018INFLOW (KAF)242272573294
34CHDW1CHELAN-LAKE CHELAN DAM06-18-2018INFLOW (KAF)31749065
35RRHW1COLUMBIA-ROCKY REACH DAM06-18-2018INFLOW (KAF)248422634894
36ARDW1ENTIAT-NEAR ARDENVOIR06-18-2018DISCHARGE (KAF)528362
37PESW1WENATCHEE-AT PESHASTIN06-18-2018DISCHARGE (KAF)39460166
38WANW1COLUMBIA-WANAPUM DAM06-18-2018INFLOW (KAF)254543021384
39PRWW1COLUMBIA-PRIEST RAPIDS DAM06-18-2018INFLOW (KAF)254573075783
40KEDW1YAKIMA-KEECHELUS LAKE06-18-2018INFLOW (KAF)223268
41KADW1KACHESS-KACHESS DAM06-18-2018INFLOW (KAF)152561
42EASW1YAKIMA-AT EASTON06-18-2018DISCHARGE (KAF)2772
43CLUW1CLE ELUM-CLE ELUM LAKE06-18-2018INFLOW (KAF)6213446
44TNAW1TEANAWAY-BELOW FORKS06-18-2018DISCHARGE (KAF)91463
45UMTW1YAKIMA-AT UMTANUM06-18-2018DISCHARGE (KAF)19969129
46BUDW1BUMPING-BUMPING LAKE DAM06-18-2018INFLOW (KAF)274265
47CLFW1NACHES-NEAR CLIFFDEL06-18-2018DISCHARGE (KAF)7013651
48RILW1TIETON-RIMROCK LAKE NEAR RIMROCK06-18-2018INFLOW (KAF)8810187
49NACW1NACHES-NEAR NACHES06-18-2018DISCHARGE (KAF)5021423
50PARW1YAKIMA-NEAR PARKER06-18-2018DISCHARGE (KAF)8411572
51KIOW1YAKIMA-AT KIONA06-18-2018DISCHARGE (KAF)31243672
52IPDI1HENRYS FORK-ISLAND PARK DAM06-18-2018INFLOW (KAF)14315990
53CHEI1FALL RIVER-NEAR CHESTER06-18-2018DISCHARGE (KAF)8911180
54ANTI1HENRYS FORK-AT ST. ANTHONY06-18-2018DISCHARGE (KAF)25533975
55TEAI1TETON-NEAR ST. ANTHONY06-18-2018DISCHARGE (KAF)255228112
56REXI1HENRYS FORK-AT REXBURG06-18-2018DISCHARGE (KAF)34739588
57JLKW4SNAKE-JACKSON LAKE AT DAM06-18-2018INFLOW (KAF)31036485
58JKSW4SNAKE-NEAR JACKSON06-18-2018DISCHARGE (KAF)13961232113
59ALPW4SNAKE-NEAR ALPINE06-18-2018DISCHARGE (KAF)16491500110
60PLDI1SF SNAKE-PALISADES DAM06-18-2018INFLOW (KAF)20792009103
61HEII1SNAKE-NEAR HEISE06-18-2018DISCHARGE (KAF)25872340111
62RIDI1WILLOW CREEK-RIRIE DAM06-18-2018INFLOW (KAF)116166
63SIFI1SNAKE-AB EAGLE ROCK NR IDAHO FALLS06-18-2018DISCHARGE (KAF)18191581115
64SHYI1SNAKE-NEAR SHELLEY06-18-2018DISCHARGE (KAF)16411263130
65SNAI1SNAKE-AT BLACKFOOT06-18-2018DISCHARGE (KAF)1125775145
66BFTI1SNAKE-NEAR BLACKFOOT06-18-2018DISCHARGE (KAF)1121705159
67PIHI1PORTNEUF-AT POCATELLO06-18-2018DISCHARGE (KAF)212390
68AFRI1SNAKE-AMERICAN FALLS RESERVOIR06-18-2018INFLOW (KAF)16781350124
69MILI1SNAKE-AT MILNER06-18-2018DISCHARGE (KAF)10283124
70HOTI1BRUNEAU-NEAR HOT SPRINGS06-18-2018DISCHARGE (KAF)214151
71SWAI1SNAKE-BELOW SWAN FALLS06-18-2018DISCHARGE (KAF)1751194190
72HWRI1BIG LOST-AT HOWELL RANCH NEAR CHILLY06-18-2018DISCHARGE (KAF)828893
73MACI1BIG LOST-MACKAY RESERVOIR NEAR MACKAY06-18-2018INFLOW (KAF)9576125
74HALI1BIG WOOD-AT HAILEY06-18-2018DISCHARGE (KAF)8211373
75MAGI1BIG WOOD-MAGIC DAM06-18-2018INFLOW (KAF)416761
76LWRI1LITTLE WOOD-LITTLE WOOD DAM06-18-2018INFLOW (KAF)192383
77OWYO3OWYHEE-OWYHEE DAM06-18-2018INFLOW (KAF)425774
78ARAI1SF BOISE-ANDERSON RANCH DAM06-18-2018INFLOW (KAF)9214563
79LUCI1BOISE-LUCKY PEAK DAM06-18-2018INFLOW (KAF)657MM
80BIGI1BOISE-AT GLENWOOD BRIDGE06-18-2018DISCHARGE (KAF)275224123
81PARI1BOISE-NEAR PARMA06-18-2018DISCHARGE (KAF)285230124
82WRMO3MALHEUR-WARM SPRINGS DAM06-18-2018INFLOW (KAF)72377
83BERO3MALHEUR-AGENCY VALLEY DAM06-18-2018INFLOW (KAF)6870
84BULO3BULLY CREEK-BULLY CREEK DAM06-18-2018INFLOW (KAF)M0M
85VALO3MALHEUR-NEAR VALE06-18-2018DISCHARGE (KAF)123138
86CSDI1NF PAYETTE-CASCADE DAM06-18-2018INFLOW (KAF)7811170
87DEDI1DEADWOOD-NEAR LOWMAN06-18-2018INFLOW (KAF)224451
88EMMI1PAYETTE-NEAR EMMETT06-18-2018DISCHARGE (KAF)27455150
89WSRI1WEISER-NEAR WEISER06-18-2018DISCHARGE (KAF)547374
90WEII1SNAKE-AT WEISER06-18-2018DISCHARGE (KAF)2621298988
91BRNI1SNAKE-BROWNLEE DAM06-18-2018INFLOW (KAF)2774308590
92WHBI1SALMON-AT WHITEBIRD06-18-2018DISCHARGE (KAF)2039239285
93TRYO3GRANDE RONDE-TROY06-18-2018DISCHARGE (KAF)26435275
94ANAW1SNAKE-NEAR ANATONE06-18-2018DISCHARGE (KAF)5366610788
95ORFI1CLEARWATER-AT OROFINO06-18-2018DISCHARGE (KAF)991114886
96DWRI1NF CLEARWATER-DWORSHAK DAM06-18-2018INFLOW (KAF)53164882
97SPDI1CLEARWATER-AT SPALDING06-18-2018DISCHARGE (KAF)28061936145
98LGDW1SNAKE-LOWER GRANITE DAM06-18-2018INFLOW (KAF)81728128101
99LGSW1SNAKE-LITTLE GOOSE DAM06-18-2018INFLOW (KAF)81728152100
100LMNW1SNAKE-LOWER MONUMENTAL DAM06-18-2018INFLOW (KAF)81858182100
101IHDW1SNAKE-ICE HARBOR DAM06-18-2018INFLOW (KAF)81858110101
102TCHW1WALLA WALLA-NEAR TOUCHET06-18-2018DISCHARGE (KAF)3939
103MCDW1COLUMBIA-MCNARY DAM06-18-2018INFLOW (KAF)339193985885
104GIBO3UMATILLA-NEAR GIBBON06-18-2018DISCHARGE (KAF)131493
105PDTO3UMATILLA-AT PENDLETON06-18-2018DISCHARGE (KAF)121579
106MYKO3MCKAY CREEK-NEAR PILOT ROCK06-18-2018DISCHARGE (KAF)0120
107UMAO3UMATILLA-NEAR UMATILLA06-18-2018DISCHARGE (KAF)3731206
108MONO3NF JOHN DAY-AT MONUMENT06-18-2018DISCHARGE (KAF)286941
109SERO3JOHN DAY-AT SERVICE CK06-18-2018DISCHARGE (KAF)3210032
110JDAO3COLUMBIA-JOHN DAY DAM06-18-2018INFLOW (KAF)343644039985
111MODO3DESCHUTES-AT MOODY NR BIGGS06-18-2018DISCHARGE (KAF)1027109194
112TDAO3COLUMBIA-THE DALLES DAM06-18-2018INFLOW (KAF)347733776392
113PITW1KLICKITAT-NEAR PITT06-18-2018DISCHARGE (KAF)21522894
114HODO3HOOD-NEAR TUCKER BRIDGE06-18-2018DISCHARGE (KAF)799880
115UNDW1WHITE SALMON-NEAR UNDERWOOD06-18-2018DISCHARGE (KAF)17818099
116BONO3COLUMBIA-BONNEVILLE DAM06-18-2018INFLOW (KAF)351493884890